[[{"header":{"parameterUnit":"m.s-1","parameterCategory":1,"la1":30.2991,"la2":30.254,"lo1":-89.0895,"lo2":-89.0444,"dy":0.0017,"dx":0.0017,"nx":28,"ny":28,"refTime":"2025-01-31T09:00:00:Z","depth":0,"parameterNumber":2,"parameterNumberName":"U-component_of_WINDS"},"data":[0,0,0,0,0,0,0,0,0,0,0,0,0,0,0,0,0,0,0,0,0,0,0,0,0,0,0,0,0,0,0,0,0,0,0,0,0,0,0,0,0,0,0,0,0,0,0,0,0,0,0,0,0,0,0,0,0,0,0.7572,0.7573,0,0.761,0.761,0.7611,0.7624,0.7624,0.7624,0.7624,0.7661,0.7662,0.7664,0,0,0,0,0,0,0,0,0,0,0,0,0,0.7511,0.7512,0.7572,0.7573,0.7573,0.761,0.761,0.7611,0.7624,0.7624,0.7624,0.7624,0.7661,0.7662,0.7664,0,0,0,0,0,0,0,0,0,0,0,0,0,0.7542,0.7512,0.7572,0.7584,0.7586,0.761,0.761,0.7611,0.7624,0.7624,0.7624,0.7624,0.7661,0.7662,0.7664,0.7678,0,0,0.7669,0.767,0,0,0,0,0,0,0,0,0.754,0.7544,0.7582,0.7584,0.7585,0.7612,0.7602,0.7633,0.7624,0.761,0.7624,0.7624,0.7645,0.7648,0.7655,0.768,0.7681,0.7669,0.767,0.7671,0.7671,0,0,0,0,0,0,0,0.7538,0.7543,0.7587,0.7583,0.7585,0.7588,0.7592,0.7608,0.7628,0.7611,0.7612,0.7616,0.7646,0.7654,0.7656,0.7682,0.7669,0.767,0.7672,0.7672,0.7719,0.7719,0,0,0,0,0,0,0.7534,0.7541,0.7586,0.7588,0.7562,0.7589,0.7594,0.7604,0.7628,0.7631,0.7617,0.7617,0.7651,0.7654,0.7658,0.7676,0.7671,0.7672,0.7673,0.7719,0.7719,0.7719,0,0,0,0,0,0,0.7533,0.7538,0.7584,0.7565,0.7571,0.759,0.7601,0.7605,0.7613,0.7632,0.7635,0.7621,0.7651,0.7655,0.7673,0.7677,0.7673,0.7675,0.7719,0.7719,0.7719,0.7712,0,0,0,0,0,0,0.7531,0.7537,0.7543,0.7565,0.7572,0.7599,0.7602,0.7605,0.7616,0.7616,0.7637,0.764,0.7651,0.767,0.7674,0.7679,0.7676,0.7718,0.7719,0.7719,0.7712,0.7712,0.7712,0,0,0,0,0,0.7529,0.7539,0.7543,0.7549,0.758,0.7599,0.7603,0.7616,0.7616,0.7622,0.7634,0.764,0.7676,0.7672,0.7677,0.7682,0.7718,0.7719,0.7719,0.7712,0.7712,0.7712,0,0,0,0,0,0,0.7517,0.7543,0.7547,0.7566,0.758,0.7602,0.7609,0.7616,0.763,0.7631,0.7645,0.765,0.7666,0.7676,0.7671,0.7697,0.7697,0.7699,0.769,0.769,0.769,0.7687,0.7677,0,0,0,0,0,0.7517,0.7531,0.7552,0.7566,0.7574,0.759,0.7599,0.7608,0.7623,0.7629,0.7643,0.7658,0.7673,0.7682,0.7697,0.7713,0.7718,0.7719,0.7719,0.7719,0.772,0.773,0.773,0.7721,0.7721,0.7721,0,0,0.7517,0.7532,0.754,0.7565,0.7577,0.7591,0.7595,0.761,0.762,0.7632,0.7649,0.7659,0.7677,0.7694,0.7702,0.7702,0.7724,0.772,0.772,0.7721,0.773,0.7731,0.7732,0.7722,0.7722,0.7721,0,0,0.7523,0.7536,0.7549,0.7561,0.758,0.7591,0.7594,0.7615,0.7622,0.764,0.7649,0.7661,0.7686,0.7698,0.7707,0.7718,0.7723,0.7722,0.7722,0.7731,0.7732,0.7733,0.7736,0.7737,0.7723,0.7723,0.7723,0,0.7519,0.7541,0.7555,0.7569,0.7579,0.759,0.7603,0.7615,0.7637,0.7644,0.7644,0.7676,0.7688,0.7708,0.7711,0.7718,0.7721,0.772,0.7731,0.7732,0.7732,0.7736,0.7737,0.7723,0.7723,0.7723,0.7723,0,0.7536,0.7551,0.7559,0.7581,0.7592,0.7606,0.7621,0.7631,0.7638,0.7649,0.7666,0.7682,0.7699,0.7705,0.7712,0.7725,0.7725,0.7728,0.7729,0.7733,0.7736,0.7738,0.7722,0.7722,0.7722,0.7723,0,0,0.7536,0.7565,0.7568,0.7578,0.76,0.7611,0.7625,0.7643,0.765,0.7665,0.7677,0.7698,0.7701,0.7711,0.772,0.7728,0.7734,0.773,0.773,0.773,0.775,0.7747,0.7749,0.7738,0.7739,0.7739,0.7748,0,0.7545,0.7571,0.7583,0.7603,0.7617,0.7627,0.7639,0.7654,0.7664,0.7677,0.7688,0.7703,0.7705,0.7712,0.772,0.7732,0.7739,0.7731,0.7749,0.775,0.7744,0.7751,0.7748,0.7756,0.775,0.775,0.775,0,0.7559,0.7574,0.7595,0.7615,0.7621,0.7632,0.7649,0.7661,0.7677,0.7684,0.7696,0.7704,0.7719,0.7719,0.7738,0.7733,0.7741,0.7748,0.7749,0.7751,0.775,0.7753,0.7759,0.776,0.7753,0.7752,0.7752,0,0.7556,0.7582,0.7598,0.7606,0.763,0.7637,0.7647,0.7663,0.7673,0.7688,0.7694,0.771,0.7719,0.7731,0.7743,0.7742,0.7762,0.7763,0.7768,0.7767,0.7771,0.7771,0.7779,0.7777,0.7777,0.7777,0.7777,0,0.7565,0.7577,0.7597,0.7607,0.7622,0.7636,0.7649,0.766,0.7674,0.7686,0.7696,0.7707,0.7722,0.7735,0.7745,0.776,0.7764,0.7769,0.7772,0.7768,0.7768,0.7774,0.7773,0.7777,0.7777,0.7777,0.7777,0,0.7564,0.7578,0.7597,0.7617,0.7623,0.7632,0.765,0.766,0.7671,0.7685,0.769,0.7706,0.7722,0.7735,0.7756,0.7762,0.7777,0.778,0.7772,0.7773,0.7777,0.7777,0.779,0.7792,0.7788,0.7788,0.7788,0,0.7568,0.7578,0.76,0.7609,0.7619,0.7633,0.7643,0.7657,0.7667,0.7686,0.7694,0.771,0.7723,0.7747,0.7761,0.7777,0.778,0.7784,0.7783,0.7779,0.778,0.7779,0.778,0.7783,0.7783,0.7783,0.7783,0,0.7574,0.7581,0.7595,0.7612,0.7624,0.7638,0.7652,0.7658,0.7675,0.7685,0.7701,0.7712,0.7733,0.7748,0.7765,0.7775,0.7782,0.7784,0.7786,0.7782,0.7777,0.778,0.7772,0.7783,0.7783,0.7783,0.7783,0.7783,0.7576,0.7586,0.7602,0.7618,0.763,0.7643,0.7653,0.7665,0.7679,0.7697,0.7704,0.7721,0.7736,0.776,0.777,0.7782,0.7784,0.7786,0.7787,0.7788,0.7787,0.7775,0.7786,0.7786,0.7786,0.7786,0.7786,0,0.7583,0.7594,0.7608,0.7628,0.764,0.7645,0.7661,0.7671,0.7685,0.7699,0.7712,0.7731,0.7746,0.7761,0.7777,0.7784,0.7788,0.7788,0.7787,0.779,0.7785,0.7782,0.7785,0.7785,0.7785,0.7785,0.7785,0.7785,0.7587,0.7603,0.7612,0.7634,0.7645,0.7661,0.7669,0.7681,0.7693,0.7713,0.7725,0.7735,0.775,0.7767,0.7781,0.7785,0.779,0.779,0.7795,0.779,0.779,0.779,0.7787,0.7791,0.7791,0.7798,0.7798,0.7798]},{"header":{"parameterUnit":"m.s-1","parameterCategory":1,"la1":30.2991,"la2":30.254,"lo1":-89.0895,"lo2":-89.0444,"dy":0.0017,"dx":0.0017,"nx":28,"ny":28,"refTime":"2025-01-31T09:00:00:Z","depth":0,"parameterNumber":3,"parameterNumberName":"V-component_of_WINDS"},"data":[0,0,0,0,0,0,0,0,0,0,0,0,0,0,0,0,0,0,0,0,0,0,0,0,0,0,0,0,0,0,0,0,0,0,0,0,0,0,0,0,0,0,0,0,0,0,0,0,0,0,0,0,0,0,0,0,0,0,0.5992,0.5992,0,0.5964,0.5963,0.5963,0.5933,0.5933,0.5933,0.5932,0.5903,0.5902,0.5902,0,0,0,0,0,0,0,0,0,0,0,0,0,0.602,0.6019,0.5992,0.5992,0.5991,0.5964,0.5963,0.5963,0.5933,0.5933,0.5932,0.5932,0.5903,0.5902,0.5902,0,0,0,0,0,0,0,0,0,0,0,0,0,0.6001,0.6019,0.5992,0.5973,0.5971,0.5964,0.5963,0.5963,0.5934,0.5933,0.5932,0.5932,0.5903,0.5902,0.5902,0.5911,0,0,0.59,0.59,0,0,0,0,0,0,0,0,0.6002,0.6,0.5976,0.5974,0.5972,0.5951,0.5962,0.5945,0.5934,0.5948,0.5932,0.5931,0.5919,0.5917,0.5913,0.5909,0.5908,0.59,0.59,0.5899,0.5899,0,0,0,0,0,0,0,0.6004,0.6001,0.5981,0.5976,0.5973,0.5966,0.5963,0.5959,0.5937,0.5947,0.5944,0.5941,0.5918,0.5914,0.5913,0.5907,0.59,0.5899,0.5899,0.5899,0.5909,0.591,0,0,0,0,0,0,0.6008,0.6002,0.5982,0.598,0.5986,0.5966,0.5962,0.5959,0.5937,0.5934,0.5942,0.594,0.5915,0.5913,0.5911,0.592,0.5899,0.5899,0.5898,0.5908,0.5909,0.591,0,0,0,0,0,0,0.6008,0.6006,0.5983,0.5991,0.5987,0.5966,0.5962,0.5958,0.5954,0.5934,0.593,0.5942,0.5915,0.5912,0.5911,0.5919,0.5898,0.5898,0.5908,0.5909,0.591,0.5938,0,0,0,0,0,0,0.6009,0.6007,0.601,0.5991,0.5987,0.5983,0.5963,0.5958,0.5954,0.5951,0.5933,0.5929,0.5914,0.5912,0.591,0.5918,0.5897,0.5907,0.5908,0.5909,0.5937,0.594,0.5943,0,0,0,0,0,0.601,0.6019,0.601,0.6008,0.599,0.5984,0.5981,0.5964,0.5954,0.5957,0.5944,0.593,0.5918,0.5912,0.591,0.5917,0.5906,0.5908,0.5909,0.5935,0.594,0.5943,0,0,0,0,0,0,0.6039,0.6016,0.6006,0.6009,0.5999,0.5979,0.5982,0.5969,0.5961,0.5959,0.5938,0.5934,0.5935,0.5926,0.592,0.5925,0.591,0.5911,0.5931,0.5935,0.5938,0.594,0.5897,0,0,0,0,0,0.6046,0.6043,0.6023,0.6027,0.6022,0.6003,0.6,0.5987,0.5976,0.5971,0.5958,0.5947,0.5941,0.5937,0.593,0.5935,0.5931,0.5939,0.5942,0.5945,0.5946,0.5948,0.5952,0.5915,0.5914,0.5914,0,0,0.606,0.6047,0.6046,0.6032,0.6023,0.602,0.6,0.5997,0.5995,0.597,0.5969,0.5959,0.5945,0.5947,0.5947,0.5939,0.5956,0.5947,0.5949,0.5949,0.595,0.5954,0.5957,0.5915,0.5915,0.5915,0,0,0.6083,0.6073,0.6076,0.6067,0.6053,0.604,0.6041,0.6023,0.6015,0.6013,0.5995,0.5991,0.5981,0.5972,0.5967,0.5987,0.5973,0.5985,0.6003,0.6005,0.6008,0.601,0.6018,0.6021,0.5987,0.5987,0.5987,0,0.6102,0.6097,0.6079,0.6077,0.6072,0.605,0.6052,0.6044,0.6029,0.6026,0.6017,0.6004,0.5993,0.5993,0.5998,0.5994,0.5994,0.5987,0.6009,0.6011,0.6013,0.602,0.6023,0.5988,0.5988,0.5988,0.5988,0,0.6121,0.6118,0.6121,0.6107,0.6102,0.6103,0.6084,0.6081,0.6069,0.6057,0.6056,0.6042,0.6032,0.6031,0.6019,0.6029,0.6025,0.6013,0.5998,0.6019,0.6025,0.6027,0.599,0.599,0.5989,0.5989,0,0,0.6162,0.6138,0.614,0.6133,0.6116,0.6113,0.6112,0.6103,0.6101,0.6091,0.609,0.6082,0.6071,0.6064,0.6051,0.6053,0.607,0.6041,0.604,0.6047,0.608,0.609,0.6093,0.6061,0.6062,0.6062,0.6082,0,0.6183,0.6181,0.6165,0.6167,0.6164,0.6143,0.6143,0.6132,0.6121,0.6116,0.6104,0.6099,0.6085,0.608,0.6081,0.6068,0.6077,0.6066,0.606,0.606,0.6065,0.6096,0.6106,0.6125,0.6084,0.6084,0.6085,0,0.6207,0.6199,0.6202,0.6185,0.6183,0.6183,0.6173,0.6168,0.6156,0.6148,0.6141,0.6126,0.6124,0.611,0.6107,0.61,0.6097,0.609,0.609,0.6089,0.6074,0.6096,0.6131,0.6134,0.6088,0.6088,0.6088,0,0.6237,0.6227,0.6227,0.6222,0.6202,0.6202,0.6194,0.6181,0.6176,0.6168,0.6164,0.6156,0.6151,0.6144,0.6127,0.6119,0.6127,0.6111,0.612,0.612,0.6122,0.6123,0.6157,0.612,0.612,0.612,0.612,0,0.6263,0.6265,0.624,0.6241,0.6243,0.6223,0.6226,0.6215,0.6204,0.6202,0.6183,0.6181,0.6159,0.6155,0.6141,0.6141,0.6139,0.6132,0.6129,0.6134,0.6135,0.6132,0.613,0.612,0.612,0.612,0.612,0,0.6297,0.628,0.6279,0.626,0.6256,0.6258,0.6242,0.6241,0.6229,0.6226,0.6225,0.6205,0.6199,0.6182,0.6171,0.6162,0.6166,0.6159,0.617,0.6168,0.6178,0.6177,0.6212,0.6215,0.6175,0.6176,0.6176,0,0.6314,0.6316,0.6297,0.6294,0.6287,0.6282,0.6278,0.6259,0.6254,0.624,0.6241,0.6234,0.6227,0.6218,0.6203,0.6195,0.6188,0.62,0.6186,0.6192,0.6188,0.6188,0.6189,0.6204,0.6204,0.6205,0.6205,0,0.6347,0.6339,0.6333,0.6324,0.6319,0.6311,0.6302,0.6301,0.6279,0.6275,0.6269,0.6264,0.6253,0.6246,0.6235,0.6226,0.6212,0.6209,0.6211,0.6217,0.6223,0.622,0.6179,0.6209,0.6208,0.6208,0.6208,0.6208,0.6373,0.6373,0.6361,0.6354,0.6346,0.6338,0.6336,0.6324,0.6318,0.6308,0.6297,0.6292,0.6279,0.6264,0.6256,0.6252,0.6244,0.6246,0.6247,0.6248,0.625,0.6224,0.625,0.6249,0.6249,0.6249,0.6249,0,0.6405,0.6396,0.639,0.6378,0.6374,0.6361,0.635,0.6347,0.6343,0.6332,0.6326,0.6319,0.6311,0.6296,0.6287,0.6287,0.628,0.6285,0.6285,0.6283,0.6258,0.6257,0.6291,0.6291,0.6291,0.6291,0.6291,0.6291,0.6421,0.6421,0.6411,0.6407,0.6397,0.6392,0.6387,0.638,0.6371,0.6364,0.6358,0.6348,0.6335,0.6326,0.6319,0.6314,0.6312,0.6319,0.6313,0.6289,0.6285,0.6281,0.6281,0.6319,0.6319,0.6339,0.6339,0.6339]}]]